Content
SEND FEEDBACK

Daily
Averages
Monthly
Summary
United States of America

WEST HELENA, ARKANSAS


Home > North America > United States > Arkansas
Elevation: 195 feet     Latitude: 34 32N     Longitude: 090 35W

WEATHER
 
SELECT A DAY
Number of Records: 226,465;   Date Range: 3/17/05 - 9/21/14
 
SHARE

PRINT THIS DATA

[ ← Previous Day ]
WEATHER ALMANAC - FEBRUARY 13, 2013
[ Next Day → ]
[ °C ]   °F
Weather ElementAverageHighLow
Temperature41.3 °F44.6 °F (1:55 pm)37.4 °F (8:35 pm)
Dewpoint37.8 °F42.8 °F (12:35 am)35.6 °F (3:15 pm)
Humidity87.7 %100 % (12:35 am)71 % (3:15 pm)
Barometer29.97 in30.06 in (10:35 pm)29.81 in (2:35 am)
Wind Speed8.3 mph19.6 mph (5:15 am)
Wind Gust25.3 mph (4:15 am)
Weather ElementAverage
Visibility8.6 mi
Wind DirectionWSW (253.7 °)

Weather ElementTotal
Precipitation0.06 in
Heating Degree Days24 (Base 65)
Averaged from 70 records on February 13, 2013
WEATHER CONDITIONS BREAKOUT
WIND DIRECTION BREAKOUT
WEATHER BY HOUR - FEBRUARY 13, 2013
[ °C ]   °F
Local TimeTemperatureDewpointHumidityBarometerVisibilityWind DirectionWind SpeedGust SpeedPrecipitationEventsConditions
12:35 AM42.8 °F42.8 °F100 %29.83 in2.5 miNW (310°)6.9 mph0.01 inRainRain
12:55 AM42.8 °F42.8 °F100 %29.82 in2.0 miNW (310°)5.8 mph0.01 inDrizzle
1:15 AM42.8 °F42.8 °F100 %29.82 in2.0 miNW (320°)5.8 mph0.01 inLight Drizzle
1:35 AM42.8 °F42.8 °F100 %29.82 in2.0 miNW (310°)5.8 mph0.01 inLight Drizzle
1:55 AM42.8 °F42.8 °F100 %29.82 in2.0 miNW (310°)9.2 mph0.01 inOvercast
2:15 AM42.8 °F42.8 °F100 %29.82 in2.0 miNNW (330°)13.8 mphRainLight Rain
2:35 AM42.8 °F41.0 °F93 %29.81 in3.0 miNNW (340°)12.7 mphLight Drizzle
2:55 AM42.8 °F41.0 °F93 %29.81 in7.0 miNNW (340°)12.7 mphOvercast
3:15 AM41.0 °F41.0 °F100 %29.82 in7.0 miNNW (330°)11.5 mphOvercast
3:35 AM41.0 °F41.0 °F100 %29.83 in3.0 miNNW (330°)15.0 mph19.6 mphOvercast
3:55 AM41.0 °F41.0 °F100 %29.83 in2.0 miNNW (330°)13.8 mph0.01 inDrizzle
4:15 AM41.0 °F41.0 °F100 %29.83 in3.0 miNNW (340°)18.4 mph25.3 mphLight Drizzle
4:35 AM41.0 °F39.2 °F93 %29.85 in4.0 miNNW (330°)15.0 mphOvercast
4:55 AM41.0 °F37.4 °F87 %29.87 in5.0 miNNW (340°)16.1 mph20.7 mphOvercast
5:15 AM41.0 °F37.4 °F87 %29.88 in10.0 miNorth (350°)19.6 mph23.0 mphRainLight Rain
5:35 AM41.0 °F37.4 °F87 %29.89 in10.0 miNNW (340°)15.0 mph23.0 mphLight Drizzle
5:55 AM39.2 °F37.4 °F93 %29.90 in7.0 miNNW (330°)15.0 mphOvercast
6:15 AM39.2 °F37.4 °F93 %29.91 in7.0 miNW (320°)11.5 mphOvercast
6:35 AM39.2 °F37.4 °F93 %29.92 in10.0 miNNW (330°)11.5 mphOvercast
6:55 AM41.0 °F37.4 °F87 %29.92 in10.0 miNNW (330°)11.5 mphOvercast
7:15 AM41.0 °F37.4 °F87 %29.93 in10.0 miNNW (330°)10.4 mph17.3 mphOvercast
7:35 AM41.0 °F37.4 °F87 %29.94 in10.0 miNNW (330°)10.4 mphOvercast
7:55 AM41.0 °F37.4 °F87 %29.96 in10.0 miNW (320°)11.5 mphOvercast
8:15 AM41.0 °F37.4 °F87 %29.97 in10.0 miNW (320°)10.4 mphOvercast
8:35 AM41.0 °F37.4 °F87 %29.98 in10.0 miNW (320°)8.1 mphOvercast
8:55 AM41.0 °F37.4 °F87 %29.98 in10.0 miNW (320°)8.1 mphOvercast
9:15 AM41.0 °F37.4 °F87 %29.99 in10.0 miNNW (330°)5.8 mphOvercast
9:35 AM41.0 °F37.4 °F87 %30.00 in10.0 miNW (310°)8.1 mphOvercast
9:55 AM41.0 °F37.4 °F87 %30.00 in10.0 miNW (320°)6.9 mphMostly Cloudy
10:15 AM41.0 °F37.4 °F87 %30.01 in10.0 miWNW (300°)5.8 mphOvercast
10:35 AM41.0 °F37.4 °F87 %30.03 in10.0 miWNW (300°)11.5 mphOvercast
10:55 AM41.0 °F37.4 °F87 %30.04 in10.0 miWNW (300°)9.2 mphOvercast
11:15 AM41.0 °F37.4 °F87 %30.05 in10.0 miNW (310°)8.1 mphOvercast
11:35 AM41.0 °F37.4 °F87 %30.05 in10.0 miWNW (300°)9.2 mphOvercast
11:55 AM41.0 °F37.4 °F87 %30.05 in10.0 miWNW (300°)12.7 mph17.3 mphOvercast
12:15 PM41.0 °F37.4 °F87 %30.04 in10.0 miWNW (290°)10.4 mphLight Drizzle
12:55 PM42.8 °F37.4 °F81 %30.03 in10.0 miWNW (300°)9.2 mphOvercast
1:15 PM41.0 °F37.4 °F87 %30.02 in10.0 miNW (310°)11.5 mphOvercast
1:35 PM41.0 °F37.4 °F87 %30.01 in10.0 miNNW (330°)8.1 mphOvercast
1:55 PM44.6 °F39.2 °F81 %30.01 in10.0 miNW (310°)8.1 mphMostly Cloudy
2:15 PM42.8 °F37.4 °F81 %30.00 in10.0 miNW (310°)6.9 mphOvercast
2:35 PM44.6 °F37.4 °F76 %30.00 in10.0 miWNW (300°)5.8 mphOvercast
2:55 PM44.6 °F37.4 °F76 %29.99 in10.0 miWest (280°)5.8 mphOvercast
3:15 PM44.6 °F35.6 °F71 %29.99 in10.0 miCalmOvercast
3:35 PM44.6 °F37.4 °F76 %30.00 in10.0 miWNW (300°)5.8 mphOvercast
3:55 PM44.6 °F37.4 °F76 %30.00 in10.0 miCalmOvercast
4:15 PM44.6 °F37.4 °F76 %30.00 in10.0 miWest (260°)3.5 mphOvercast
4:35 PM44.6 °F35.6 °F71 %30.00 in10.0 miCalmMostly Cloudy
4:55 PM44.6 °F35.6 °F71 %30.00 in10.0 miCalmOvercast
5:15 PM44.6 °F37.4 °F76 %30.01 in10.0 miCalmOvercast
5:35 PM44.6 °F37.4 °F76 %30.01 in10.0 miSouth (170°)4.6 mphOvercast
5:55 PM42.8 °F37.4 °F81 %30.02 in10.0 miSouth (170°)4.6 mphOvercast
6:15 PM42.8 °F37.4 °F81 %30.02 in10.0 miSouth (170°)5.8 mphOvercast
6:35 PM42.8 °F37.4 °F81 %30.02 in10.0 miSouth (170°)5.8 mphOvercast
6:55 PM42.8 °F37.4 °F81 %30.02 in10.0 miSouth (170°)5.8 mphOvercast
7:15 PM42.8 °F37.4 °F81 %30.03 in10.0 miSouth (170°)6.9 mphOvercast
7:35 PM42.8 °F37.4 °F81 %30.03 in10.0 miSouth (170°)5.8 mphMostly Cloudy
7:55 PM41.0 °F35.6 °F81 %30.03 in10.0 miSouth (170°)5.8 mphScattered Clouds
8:15 PM39.2 °F35.6 °F87 %30.04 in10.0 miSouth (170°)5.8 mphScattered Clouds
8:35 PM37.4 °F35.6 °F93 %30.03 in10.0 miSouth (170°)8.1 mphClear
8:55 PM37.4 °F35.6 °F93 %30.04 in10.0 miSouth (180°)4.6 mphClear
9:15 PM37.4 °F35.6 °F93 %30.04 in10.0 miSouth (170°)5.8 mphClear
9:35 PM37.4 °F35.6 °F93 %30.04 in10.0 miSouth (170°)8.1 mphClear
9:55 PM37.4 °F35.6 °F93 %30.05 in10.0 miSouth (180°)4.6 mphClear
10:15 PM37.4 °F35.6 °F93 %30.05 in10.0 miSouth (170°)5.8 mphClear
10:35 PM37.4 °F35.6 °F93 %30.06 in10.0 miSouth (180°)6.9 mphClear
10:55 PM37.4 °F35.6 °F93 %30.06 in10.0 miSouth (180°)5.8 mphClear
11:15 PM37.4 °F35.6 °F93 %30.06 in10.0 miSouth (180°)6.9 mphClear
11:35 PM37.4 °F35.6 °F93 %30.06 in10.0 miSouth (190°)8.1 mphClear
11:55 PM37.4 °F35.6 °F93 %30.06 in10.0 miSouth (190°)6.9 mphClear
Hourly data recorded from KUTA, located miles away from West Helena, Arkansas







STORIES FROM OUR PARTNERS